ROMMA est une association bénévole à but non lucratif. Votre soutien est indispensable : ADHERER à ROMMA ou FAIRE un DON

Chambon - (38, Isère)

Oisans (2460 m)   Longitude: 06° 10' 42" E   Latitude: 45° 01' 32" N Station partenaire n°803
 

Détail journalier du     <<     >>

Température Humidité Vent Dir Rafale Dir. rafale Neige 1 Neige 2
Heure (°C) (%) (km/h) (km/h) (cm) (cm)
01:00 0.75419SE66S164230
02:00 0.0012SSE62SSE00
03:00 0.76436SSE95SSO164227
04:00 0.76342SSO95SSO164225
05:00 0.56528SSO75SSO164225
06:00 0.0017SSO73SSO00
07:00 0.46044SSO83SSO164223
08:00 0.65437SSO83SSO164223
09:00 0.65229S76S164222
10:00 0.0018S83S00
11:00 1.56521SSE89SSE164221
12:00 2.06634S124SSO164220
13:00 2.76554SSO115SSO163218
14:00 0.0031SSO112SSO00
15:00 3.85752SSO111SSO161216
16:00 3.65751SSO111SSO160215
17:00 4.05550SSO99SSO159215
18:00 0.0025SSO94SSO00
19:00 2.56653SSO101SSO159214
20:00 1.47642SSO93SSO159214
21:00 0.48736SSO67SSO159214
22:00 0.0017SSO71SSO00
23:00 -0.29814SSO57SSO162216
minuit -0.99911SSO57SSO164216

Graphique du 25-04-2019

 

Serveur OMMA